Regional Weather Roundup
Issued by NWS

Home | Current Version | Previous Version | Text Only | Print | Product List | Glossary Off
Versions: 1 2 3 4 5 6 7 8 9 10 11 12 13 14 15 16 17 18 19 20 21 22 23 24 25 26 27

000
ASUS45 KBOI 160610
RWRID

IDAHO REGIONAL WEATHER ROUNDUP
NATIONAL WEATHER SERVICE BOISE ID
1100 PM MST SUN JAN 15 2017

NOTE: "FAIR" INDICATES FEW OR NO CLOUDS BELOW 12000 FEET
WITH NO SIGNIFICANT WEATHER AND/OR OBSTRUCTIONS TO VISIBILITY

IDZ012-014-160700-
SOUTHWEST IDAHO


CITY           SKY/WX    TMP DP  RH WIND       PRES   REMARKS
BOISE          CLEAR      2   0  91 CALM      30.41R FOG
CALDWELL       CLEAR      0  -3  87 SW3       30.47R
MOUNTAIN HOME  MIX PCPN   4   3  97 CALM      30.41R
$$

IDZ016-017-160700-
SOUTHCENTRAL IDAHO


CITY           SKY/WX    TMP DP  RH WIND       PRES   REMARKS
BURLEY         CLOUDY    12   8  84 VRB3      30.29R
JEROME         LGT SNOW   8   5  87 CALM      30.32R FOG
TWIN FALLS     FOG       10   7  87 CALM      30.30R VSB 3/4
$$

IDZ019>023-160700-
SOUTHEAST IDAHO


CITY           SKY/WX    TMP DP  RH WIND       PRES   REMARKS
IDAHO FALLS    CLOUDY    -2  -5  87 CALM      30.27R
POCATELLO      CLOUDY    10   6  84 SW8       30.29R FOG     WCI  -2
REXBURG        CLOUDY    -3  -7  82 NE5       30.25R WCI -13
$$

IDZ006-010-011-018-031-032-160700-
CENTRAL IDAHO MOUNTAINS


CITY           SKY/WX    TMP DP  RH WIND       PRES   REMARKS
MCCALL         CLEAR     -1  -6  79 NE6       30.22R WCI -13
HAILEY         PTCLDY     1   0  92 NW3       30.21S
STANLEY          N/A    -14 -19  79 CALM      30.25R
SALMON         CLOUDY   -18 -18 100 CALM      30.48R
CHALLIS        PTCLDY   -20 -23  86 CALM      30.36R
$$

IDZ002-004-006-007-026-160700-
NORTHERN IDAHO


CITY           SKY/WX    TMP DP  RH WIND       PRES   REMARKS
LEWISTON       CLOUDY    13   9  84 W3        30.47S
LOWELL           N/A     11   6  81 CALM      30.49R
COEUR D`ALENE  FOG       -1  -4  87 CALM      30.39S VSB 1/4
MULLAN PASS    CLEAR     20  10  65 W6        30.15R WCI  12
$$




USA.gov is the U.S. government's official web portal to all federal, state and local government web resources and services.